Location: Aufkirchen
(47.9603°N, 11.3653°E)
Time: 05:36:23
(UTC+01:00)

Transit 4A - Pass Details

Date: 30 November 2020
Orbit: 864 x 980 km, 66.8° (Epoch: 26 January)

Event Time Altitude Azimuth Distance (km) Brightness Sun altitude
Rises 08:59:54 0° 233° (SW) 3,633 10.9 9.1°
Reaches altitude 10° 09:02:31 10° 239° (WSW) 2,703 10.3 9.4°
Maximum altitude 09:08:39 49° 313° (NW) 1,239 8.3 10.1°
Drops below altitude 10° 09:14:53 10° 28° (NNE) 2,741 10.2 10.7°
Sets 09:17:34 0° 34° (NE) 3,689 10.9 11.0°
